Temp
64 65 64 63 63 64 64 64 63 63 63 64 64 64 64 64 62 57 50 59 62 70 68 60 58 58 56 53 55 54 38 34 37 38 41 49 46 53 56 53 55 56 59 63 62
64 64 64 64 63 63 63 64 64 63 63 63 63 63 63 62 55 51 61 67 70 70 60 55 52 55 50 50 50 44 38 40 47 47 43 47 47 48 47 50 51 55 60 62 62
64 63 63 63 63 62 62 63 64 63 63 63 63 63 62 60 50 52 68 69 71 69 62 59 57 54 47 47 44 43 38 45 46 48 48 47 47 50 47 45 51 52 57 60 59
63 63 63 62 62 62 62 62 62 61 61 63 63 62 62 54 36 58 71 71 70 65 60 56 52 47 46 44 49 41 45 46 48 50 48 46 50 47 47 50 57 57 58 58 56
63 62 62 62 62 61 61 61 60 60 62 63 62 62 55 46 46 65 70 69 65 61 56 53 49 47 42 45 49 44 46 50 50 50 49 50 46 47 49 55 58 58 58 57 56
62 62 61 60 61 61 61 61 61 60 62 62 62 61 49 40 60 66 65 63 63 59 55 54 51 54 49 47 44 48 47 48 50 48 49 47 48 47 51 56 55 56 56 57 57
61 61 61 60 59 60 61 61 61 59 61 61 62 58 48 46 61 62 64 61 62 58 52 56 56 50 49 42 50 48 42 45 48 49 47 49 42 44 54 56 54 56 57 58 58
60 60 60 59 59 59 60 60 61 58 58 61 61 53 43 61 59 60 63 61 62 61 58 57 56 50 48 48 46 42 41 33 47 48 49 46 39 51 55 53 52 55 56 57 58
61 60 59 58 59 59 59 59 60 59 59 60 52 47 42 63 57 62 61 58 57 58 57 60 52 45 46 42 39 38 33 34 41 51 50 45 39 50 54 51 50 54 57 56 58
59 59 58 58 58 58 58 58 59 57 58 59 57 44 50 52 58 60 60 61 55 54 52 50 44 38 40 39 31 33 36 40 38 47 48 44 41 48 52 51 50 52 55 54 56
56 57 57 56 57 58 54 49 45 42 46 43 45 46 52 58 60 56 60 56 54 49 39 43 37 35 38 44 40 38 37 35 43 49 44 43 44 47 52 51 51 53 51 52 55
57 56 57 57 57 58 50 44 46 47 38 49 50 50 55 56 49 54 60 48 46 38 42 42 34 42 46 46 44 42 37 37 43 48 45 43 42 48 51 49 54 51 51 53 55
56 56 56 56 55 51 49 49 55 49 41 48 51 50 51 54 48 50 55 50 44 40 40 33 40 50 47 41 39 39 38 38 38 44 44 41 39 42 50 53 55 56 55 55 55
56 55 56 56 50 51 48 53 55 52 34 39 45 50 52 52 45 56 56 49 44 39 41 38 47 45 41 38 40 31 43 43 41 35 27 41 29 39 45 47 50 50 52 53 55
56 55 55 55 44 46 50 53 55 49 18 43 44 56 53 46 47 48 55 49 40 41 39 36 39 39 37 40 42 36 43 40 39 34 31 37 33 38 43 42 45 48 50 54 55
57 56 55 50 47 50 53 52 47 29 18 37 44 43 43 45 46 49 48 50 49 42 41 39 46 42 41 44 44 45 39 37 35 32 27 34 34 31 36 42 45 47 49 53 55
56 56 52 52 43 52 52 45 26 18 37 35 38 42 40 40 43 44 43 38 34 25 25 34 38 43 45 38 42 40 31 23 19 19 26 35 33 32 43 45 46 45 48 52 54
56 54 54 52 50 51 50 38 24 34 33 43 42 41 36 41 41 42 38 33 39 35 24 22 21 38 45 40 35 34 33 26 17 18 26 36 28 32 47 48 48 49 49 53 49
55 48 46 49 50 48 39 28 30 32 40 40 41 34 35 40 39 38 34 32 36 37 27 25 28 42 43 43 40 34 29 37 31 32 22 29 34 41 46 46 46 47 49 51 52
43 43 43 49 48 43 35 35 38 43 43 42 32 36 30 35 34 34 32 36 36 40 38 33 23 37 41 42 42 37 39 28 27 15 20 27 28 31 37 40 44 46 46 49 52
42 38 46 49 46 38 28 32 39 46 44 40 35 35 34 33 35 31 30 36 39 39 40 35 29 31 36 32 30 32 29 30 28 27 16 14 28 39 40 43 40 44 48 48 49
42 33 47 46 35 32 29 38 45 43 44 43 41 39 36 36 33 30 30 33 40 39 32 35 30 19 31 38 39 36 31 27 20 19 26 21 28 43 42 45 43 43 46 49 50
40 37 45 43 29 29 39 42 43 42 41 41 41 42 41 36 31 33 33 41 41 38 32 36 22 10 21 29 34 30 33 33 26 22 22 16 24 44 43 45 46 42 44 46 48
37 32 36 38 36 32 34 37 38 44 42 43 41 42 39 36 37 32 32 39 41 39 45 40 23 18 13 20 27 25 31 32 26 15 17 22 24 34 36 42 43 41 42 43 45
36 35 38 29 34 35 37 38 36 36 41 42 39 37 35 30 31 30 34 34 39 42 37 32 17 24 28 31 32 30 31 32 20 26 18 26 28 32 34 35 37 41 42 43 44
32 33 34 32 35 35 37 35 36 37 38 37 36 37 35 31 30 28 31 30 28 35 31 31 17 18 18 31 30 29 32 32 33 32 32 31 31 35 37 35 36 38 41 41 42
39 39 36 36 33 33 34 38 38 38 39 39 37 35 33 34 35 34 34 33 30 28 28 26 19 17 18 27 23 18 31 33 33 35 33 25 33 35 37 41 37 37 39 40 41
MSLP
1017.95 1017.49 1017.23 1016.93 1016.48 1016.05 1015.70 1015.34 1015.21 1015.22 1015.42 1015.47 1015.51 1015.76 1015.58 1015.86 1015.86 1015.89 1015.53 1014.69 1014.58 1014.47 1014.83 1015.42 1015.82 1016.00 1016.35 1016.77 1017.19 1017.38 1018.07 1017.27 1016.37 1016.03 1014.44 1014.33 1014.06 1013.24 1012.94 1012.44 1011.67 1010.89 1009.98 1009.54 1009.42
1017.80 1017.46 1017.04 1016.62 1016.40 1015.90 1015.51 1015.14 1014.87 1015.00 1015.16 1015.34 1015.42 1015.51 1015.58 1015.63 1015.72 1015.15 1014.02 1013.94 1013.90 1014.24 1014.92 1015.41 1015.85 1016.06 1016.53 1016.87 1017.24 1017.57 1017.23 1016.07 1015.31 1014.81 1014.66 1014.25 1013.93 1013.28 1012.92 1012.12 1011.33 1010.40 1009.79 1009.39 1009.36
1017.22 1016.87 1016.69 1016.41 1016.08 1015.81 1015.38 1014.93 1014.24 1014.67 1014.92 1015.24 1015.20 1015.41 1015.50 1015.48 1015.40 1013.58 1012.78 1013.34 1013.60 1013.98 1014.67 1015.16 1015.53 1015.76 1016.31 1016.69 1017.01 1016.99 1016.27 1015.63 1014.72 1014.14 1014.16 1013.73 1013.22 1012.97 1012.42 1011.39 1010.65 1009.45 1009.00 1009.00 1009.20
1016.83 1016.43 1016.20 1016.05 1015.88 1015.58 1015.29 1014.78 1014.14 1014.55 1014.90 1014.91 1014.99 1015.17 1015.44 1015.43 1014.84 1012.93 1012.64 1013.07 1013.55 1014.00 1014.68 1015.08 1015.43 1015.78 1015.90 1016.00 1015.95 1016.36 1015.51 1015.12 1013.51 1013.51 1013.48 1013.05 1012.67 1012.04 1011.73 1009.73 1009.61 1009.17 1008.47 1008.29 1008.55
1016.56 1016.12 1015.79 1015.78 1015.60 1015.42 1015.11 1014.81 1014.49 1014.53 1014.59 1014.66 1014.82 1015.02 1015.43 1015.24 1014.10 1012.76 1012.81 1013.21 1013.61 1014.10 1014.43 1014.75 1015.27 1015.42 1015.30 1015.35 1015.48 1015.27 1014.49 1013.92 1013.25 1012.83 1012.38 1012.46 1011.97 1011.45 1010.14 1009.17 1009.09 1008.99 1008.27 1007.89 1007.97
1016.27 1015.90 1015.61 1015.30 1015.26 1015.15 1014.96 1014.64 1014.35 1014.14 1014.28 1014.39 1014.64 1014.90 1015.44 1014.81 1012.89 1012.61 1012.84 1013.38 1013.54 1013.94 1014.20 1014.63 1014.65 1014.63 1014.86 1014.83 1015.02 1014.29 1013.88 1013.21 1012.55 1011.93 1011.66 1011.53 1010.46 1011.02 1008.27 1008.24 1008.47 1008.42 1008.01 1006.87 1007.10
1015.89 1015.63 1015.26 1015.03 1014.89 1014.85 1014.74 1014.48 1014.28 1014.32 1014.37 1014.30 1014.48 1014.91 1015.09 1013.95 1012.87 1012.95 1013.25 1013.13 1013.40 1013.52 1013.96 1014.21 1014.36 1014.72 1014.73 1014.58 1014.11 1013.97 1013.66 1012.62 1011.63 1010.93 1010.98 1010.63 1009.77 1008.98 1007.16 1007.71 1007.52 1007.18 1006.71 1005.89 1005.90
1015.54 1015.17 1014.95 1014.66 1014.58 1014.52 1014.43 1014.23 1014.12 1014.36 1014.42 1014.37 1014.50 1014.93 1014.57 1013.08 1012.99 1012.96 1012.92 1012.94 1013.11 1013.28 1013.64 1013.98 1014.29 1014.72 1014.66 1014.26 1013.90 1013.49 1013.20 1012.45 1010.70 1010.38 1010.37 1010.55 1008.27 1006.89 1006.64 1006.86 1006.44 1006.01 1005.50 1004.89 1004.95
1014.97 1014.65 1014.49 1014.39 1014.23 1014.32 1014.23 1013.93 1013.79 1014.18 1014.32 1014.42 1014.77 1014.90 1014.12 1012.95 1012.65 1012.45 1012.66 1012.94 1013.07 1013.42 1013.70 1013.98 1014.45 1014.66 1014.43 1014.11 1013.84 1013.39 1012.97 1012.10 1010.65 1009.74 1009.75 1009.98 1007.83 1005.82 1006.11 1006.09 1005.71 1005.36 1004.37 1004.03 1004.19
1014.54 1014.19 1014.13 1014.06 1014.02 1014.14 1014.02 1013.81 1013.91 1014.24 1014.38 1014.59 1014.71 1015.11 1014.00 1013.09 1012.47 1012.40 1012.47 1012.79 1013.14 1013.45 1013.98 1014.35 1014.60 1014.44 1014.12 1013.85 1013.61 1013.16 1012.57 1011.59 1010.70 1009.58 1009.20 1008.71 1007.45 1006.04 1005.78 1005.93 1005.03 1004.42 1003.68 1003.78 1003.47
1014.15 1013.68 1013.79 1013.77 1014.01 1014.10 1014.23 1014.22 1014.80 1015.10 1014.54 1014.32 1014.33 1014.25 1013.59 1013.02 1012.57 1012.51 1012.55 1012.85 1013.14 1013.53 1014.19 1014.28 1014.41 1013.82 1013.21 1012.85 1012.83 1012.68 1012.36 1011.46 1010.17 1009.31 1008.86 1007.74 1007.07 1005.97 1005.31 1004.51 1004.23 1003.69 1003.41 1003.35 1003.11
1014.08 1013.59 1013.56 1013.53 1013.81 1014.09 1014.34 1014.42 1014.56 1014.61 1014.53 1014.06 1014.15 1014.22 1013.74 1013.18 1013.00 1012.69 1012.66 1013.23 1013.42 1013.78 1014.02 1014.18 1013.48 1012.55 1012.21 1012.16 1012.13 1011.83 1011.70 1010.91 1009.73 1008.93 1008.61 1007.63 1007.06 1006.61 1004.77 1003.72 1003.48 1003.51 1002.95 1002.58 1002.48
1014.57 1013.82 1013.60 1013.78 1013.98 1014.34 1014.44 1014.50 1014.27 1014.36 1014.27 1014.03 1013.94 1013.93 1013.53 1013.29 1013.09 1012.78 1012.91 1012.93 1013.15 1013.58 1013.62 1013.62 1012.62 1011.97 1011.80 1011.76 1011.78 1011.52 1011.16 1010.78 1010.26 1008.93 1007.84 1007.78 1007.15 1006.54 1005.05 1004.16 1003.69 1002.89 1002.07 1002.17 1002.53
1014.83 1014.33 1014.07 1014.07 1014.49 1014.55 1014.69 1014.62 1014.16 1014.24 1014.45 1014.75 1014.05 1013.79 1013.46 1013.26 1013.19 1012.78 1012.64 1012.99 1013.02 1013.33 1013.31 1013.12 1012.25 1011.86 1011.72 1011.82 1011.83 1011.49 1010.78 1010.79 1010.33 1010.08 1009.46 1008.25 1008.05 1007.34 1006.35 1005.17 1004.28 1003.82 1003.05 1002.24 1002.77
1014.85 1014.69 1014.48 1014.45 1015.01 1015.00 1015.32 1014.85 1014.40 1014.53 1014.88 1015.00 1014.19 1013.68 1013.50 1013.63 1013.45 1012.88 1012.64 1012.90 1013.28 1013.38 1013.76 1013.08 1012.33 1011.90 1011.88 1011.63 1011.48 1011.37 1010.82 1010.89 1010.67 1010.41 1010.17 1008.99 1008.87 1008.82 1007.68 1006.84 1005.98 1005.15 1004.03 1003.26 1002.79
1015.12 1014.91 1014.67 1014.91 1015.26 1015.54 1015.04 1014.87 1015.01 1015.35 1015.92 1015.17 1014.40 1013.98 1013.87 1013.60 1013.30 1013.07 1013.11 1013.24 1013.22 1013.57 1013.61 1013.28 1012.44 1012.08 1011.81 1011.28 1011.27 1011.08 1010.77 1010.67 1010.67 1010.92 1011.14 1010.31 1009.81 1009.81 1008.82 1008.06 1006.88 1006.08 1005.00 1004.06 1003.56
1015.50 1015.12 1014.97 1015.08 1015.81 1015.28 1015.00 1015.22 1015.46 1015.84 1016.55 1015.57 1014.83 1014.44 1014.25 1013.91 1013.63 1013.52 1013.68 1014.03 1014.43 1014.60 1014.59 1014.29 1013.22 1012.57 1012.15 1011.69 1011.26 1011.39 1011.26 1011.69 1012.05 1012.11 1011.98 1011.47 1011.17 1011.84 1010.25 1008.85 1008.65 1007.91 1006.70 1005.38 1004.42
1015.91 1015.64 1015.65 1015.70 1015.65 1015.31 1015.18 1015.69 1015.74 1016.75 1016.09 1015.22 1014.76 1014.62 1014.46 1014.14 1013.95 1014.16 1014.46 1015.17 1015.19 1015.35 1015.53 1015.40 1014.31 1013.40 1012.61 1012.50 1012.45 1012.12 1012.26 1012.74 1012.87 1012.63 1012.76 1012.07 1012.69 1012.52 1011.25 1010.34 1009.26 1008.63 1007.62 1006.74 1005.81
1016.19 1016.35 1016.35 1016.16 1015.79 1015.52 1015.86 1015.79 1016.92 1016.44 1015.90 1015.28 1014.92 1014.84 1014.76 1014.49 1014.48 1014.75 1015.66 1016.34 1016.04 1016.00 1016.32 1016.04 1015.13 1014.10 1013.35 1012.87 1012.87 1012.60 1013.05 1013.48 1013.50 1013.53 1013.66 1014.45 1013.46 1012.36 1012.05 1011.25 1010.59 1009.33 1008.47 1008.00 1007.52
1016.87 1016.90 1016.65 1016.14 1015.92 1015.93 1015.88 1016.10 1016.39 1015.94 1015.51 1015.13 1015.13 1014.99 1015.13 1015.02 1015.10 1015.45 1016.45 1017.13 1016.74 1016.45 1016.36 1016.44 1015.96 1015.31 1014.31 1013.65 1013.42 1013.58 1013.84 1014.18 1014.46 1015.22 1015.63 1015.58 1014.69 1014.34 1013.50 1012.70 1011.59 1010.57 1009.58 1009.00 1008.42
1017.37 1017.22 1016.55 1016.04 1016.00 1016.40 1016.87 1016.94 1016.34 1015.66 1015.17 1014.98 1015.09 1015.25 1015.48 1015.59 1015.78 1016.49 1017.38 1017.43 1017.13 1016.77 1016.74 1016.86 1016.99 1016.76 1015.83 1015.56 1015.50 1014.84 1015.23 1015.54 1016.09 1016.45 1016.57 1016.48 1016.13 1015.35 1014.32 1013.52 1012.81 1011.81 1011.09 1010.15 1009.45
1019.14 1018.56 1017.01 1016.41 1016.87 1017.67 1017.80 1016.95 1016.33 1015.90 1015.27 1015.06 1015.05 1015.34 1015.64 1015.87 1016.50 1017.01 1017.55 1017.67 1017.40 1017.36 1017.59 1017.63 1018.03 1018.30 1017.78 1016.67 1016.23 1016.38 1016.61 1016.82 1017.33 1018.02 1017.57 1017.08 1017.02 1015.86 1014.84 1013.92 1013.28 1012.73 1011.93 1011.35 1010.90
1019.61 1019.38 1017.33 1017.29 1018.30 1018.60 1017.91 1017.44 1016.99 1016.33 1015.98 1015.67 1015.65 1015.71 1015.79 1016.40 1017.06 1017.37 1017.69 1017.66 1017.66 1017.76 1018.10 1018.18 1019.31 1019.87 1019.02 1018.01 1017.15 1017.41 1017.32 1017.35 1017.77 1018.17 1018.60 1018.07 1017.35 1016.13 1015.36 1014.81 1014.48 1013.94 1013.26 1012.68 1012.13
1020.08 1020.46 1019.64 1019.19 1019.53 1019.15 1018.30 1017.84 1017.32 1016.70 1016.51 1016.33 1016.43 1016.06 1016.33 1016.92 1017.08 1017.76 1018.08 1018.07 1017.95 1018.08 1018.24 1018.53 1020.20 1020.91 1020.70 1020.05 1019.39 1018.44 1017.77 1017.49 1017.76 1018.74 1018.59 1018.09 1017.35 1016.57 1016.23 1015.90 1015.55 1015.09 1014.59 1014.00 1013.74
1019.93 1021.30 1021.57 1021.73 1020.24 1019.81 1018.75 1018.09 1017.74 1017.49 1017.17 1016.99 1017.19 1017.56 1017.38 1017.67 1017.93 1018.28 1018.38 1018.43 1018.37 1018.50 1018.80 1019.58 1021.39 1021.52 1021.07 1020.29 1019.39 1018.65 1018.00 1017.58 1017.90 1018.02 1018.05 1017.66 1017.15 1016.65 1016.60 1016.50 1016.24 1015.91 1015.43 1015.09 1014.83
1021.39 1021.92 1022.09 1021.58 1021.16 1020.30 1019.40 1018.73 1018.19 1018.04 1018.02 1018.00 1018.13 1018.29 1017.84 1018.39 1018.70 1018.84 1018.92 1019.07 1019.37 1019.30 1019.84 1020.68 1021.93 1022.21 1021.74 1020.45 1019.58 1018.60 1017.66 1017.20 1017.15 1017.10 1017.13 1017.13 1016.78 1016.51 1016.27 1016.46 1016.70 1016.73 1016.48 1015.98 1015.60
1021.02 1021.57 1021.38 1021.26 1021.61 1021.18 1020.43 1019.59 1019.05 1018.58 1018.66 1018.72 1018.90 1018.95 1019.09 1019.12 1018.98 1019.04 1019.17 1019.51 1019.74 1020.06 1020.64 1021.40 1022.41 1022.98 1022.48 1021.06 1019.73 1018.73 1016.89 1016.57 1016.40 1016.31 1016.45 1016.66 1016.38 1016.38 1016.21 1016.33 1016.59 1016.62 1016.68 1016.59 1016.45
Wind_Speed
17 17 13 16 18 17 18 14 10 10 6 6 6 6 6 7 7 4 8 9 8 13 8 4 2 3 4 3 3 2 3 8 13 12 14 14 10 12 6 11 10 7 15 12 7
15 16 16 16 17 15 17 16 19 10 6 5 6 5 5 5 5 10 13 13 13 17 6 6 5 6 3 4 3 5 5 15 11 15 14 17 11 12 4 9 15 13 10 10 6
15 13 13 14 16 16 17 20 11 8 5 5 5 4 3 3 4 6 10 14 13 11 6 5 3 1 5 4 5 6 13 13 16 14 12 16 15 6 8 17 17 20 16 12 7
20 17 13 12 15 16 17 17 2 5 0 4 4 2 4 2 3 2 13 15 12 8 6 4 3 3 6 8 11 7 13 16 18 15 12 15 12 15 13 26 17 15 12 9 8
19 19 17 10 11 14 15 14 6 5 6 3 2 1 1 2 8 5 11 10 6 6 7 8 7 5 5 5 7 14 16 15 18 18 19 16 20 20 21 21 17 15 20 18 13
21 17 19 13 10 12 15 14 11 7 4 2 3 4 2 2 4 9 8 6 7 6 6 6 6 7 5 4 6 4 9 14 14 16 14 17 21 5 24 19 19 18 22 24 18
21 20 17 17 9 10 14 15 8 4 3 2 3 2 0 11 2 4 3 7 5 7 4 4 3 1 2 4 7 8 13 15 16 13 10 7 16 20 28 18 20 20 21 23 21
22 20 16 15 11 8 13 16 7 3 1 0 3 2 6 5 2 4 5 3 7 5 4 4 3 2 4 4 4 4 3 4 4 0 5 10 23 19 14 14 19 23 23 25 20
22 18 16 12 9 7 12 14 6 8 4 2 2 3 7 8 0 5 4 3 5 2 3 4 3 5 3 3 2 3 6 7 10 6 8 10 15 17 7 8 11 15 18 15 20
24 19 13 10 4 6 11 5 4 5 3 3 2 2 4 3 0 1 4 5 3 3 2 4 3 2 3 2 3 4 8 7 12 7 10 16 24 25 17 12 19 17 14 10 15
26 16 10 6 5 5 5 3 5 4 2 5 4 2 3 6 1 2 2 3 1 0 4 4 3 7 10 8 9 6 9 12 12 12 8 9 18 20 19 16 16 13 8 7 12
24 11 8 4 4 6 2 3 3 2 2 7 4 5 5 3 2 3 4 3 4 5 3 4 7 12 12 11 11 11 9 12 8 12 7 13 13 13 15 6 9 3 10 9 7
21 18 7 9 10 3 2 3 3 1 4 3 3 3 4 3 2 3 5 2 5 4 7 6 6 6 3 5 6 5 5 5 10 12 5 5 4 19 24 10 9 7 10 11 15
20 15 12 6 3 2 3 7 7 1 4 5 3 2 1 1 2 1 1 1 2 4 4 5 3 4 5 4 3 4 3 7 11 8 4 3 4 18 20 24 20 18 16 7 13
18 12 9 9 2 3 3 5 6 3 7 4 2 3 2 1 2 2 1 1 3 4 5 8 3 4 2 5 2 7 8 6 7 5 3 4 3 12 15 17 15 20 15 5 6
16 11 10 4 3 2 5 4 3 5 5 3 1 2 2 1 2 1 2 1 3 3 3 5 5 0 3 8 4 7 3 3 1 1 4 9 4 8 16 16 18 23 22 13 2
16 11 4 2 1 5 4 3 5 8 4 3 2 0 2 2 2 1 3 6 4 6 5 7 5 6 3 7 5 8 5 3 5 5 3 5 8 5 16 15 14 16 19 19 14
11 8 8 6 4 5 3 2 10 1 1 1 1 0 2 1 3 5 3 5 6 4 2 5 9 6 9 1 5 5 3 2 2 1 3 6 4 7 13 10 12 12 16 16 16
9 3 3 5 5 3 3 8 3 1 2 3 3 3 4 2 1 3 3 6 4 6 4 5 5 6 5 4 4 7 4 1 2 3 6 4 7 2 18 15 8 13 17 16 11
3 3 4 6 6 3 4 9 4 1 2 2 2 1 1 3 1 3 6 4 7 4 3 5 3 3 7 8 8 4 4 4 4 4 5 2 3 4 13 13 14 15 13 15 14
4 4 4 8 2 5 5 3 2 3 1 3 2 5 3 2 3 3 4 1 6 7 5 4 4 7 5 6 6 7 6 5 3 3 5 3 3 9 10 11 11 13 13 13 14
3 5 5 5 5 2 3 2 2 5 4 4 4 3 2 4 5 3 2 1 8 4 3 4 3 1 2 4 4 4 4 3 4 5 3 4 2 6 8 10 11 13 14 14 13
2 3 3 4 5 4 4 4 4 7 5 4 5 4 4 3 4 2 2 3 6 5 2 3 3 3 9 8 7 6 6 3 4 3 3 4 3 5 8 10 11 10 11 11 14
4 6 6 5 2 3 3 4 2 5 4 3 4 4 3 6 6 3 2 3 5 2 9 4 4 6 6 6 4 5 6 4 4 5 2 1 3 5 8 9 9 9 9 9 9
2 4 6 5 7 6 3 2 3 5 5 8 5 6 2 3 3 3 3 2 4 9 5 5 3 3 2 4 3 3 4 6 4 3 4 3 3 1 3 3 5 5 7 9 10
3 3 3 2 5 7 6 4 2 1 4 4 5 4 6 5 1 2 2 3 1 5 4 4 1 3 5 4 4 3 4 3 3 2 3 3 3 1 3 2 5 6 5 7 8
2 2 2 1 5 5 5 6 6 2 2 4 1 2 5 2 0 1 3 4 2 1 2 3 4 3 4 6 6 7 4 4 2 3 3 3 4 1 2 3 2 4 5 6 6
Wind_Direction
335 337 339 334 335 324 331 313 252 256 252 271 265 273 276 295 305 282 248 224 184 209 160 123 121 160 131 136 150 59 229 244 252 258 273 290 288 286 246 258 274 224 249 266 321
329 332 333 334 337 326 326 327 314 223 227 255 270 274 293 316 295 257 232 219 223 193 145 165 196 188 164 178 176 183 230 246 242 243 262 274 257 270 267 270 266 260 267 274 274
313 316 325 334 334 335 325 332 298 216 210 243 248 278 305 351 294 247 190 211 174 172 158 174 177 151 181 147 193 191 238 245 255 257 245 258 265 243 246 260 238 257 257 255 237
319 306 312 326 333 336 334 329 177 148 57 273 260 280 295 117 247 223 149 180 175 136 145 169 190 203 203 194 206 227 238 241 260 250 257 258 268 256 233 250 257 250 245 247 252
322 323 311 313 327 332 334 331 313 234 207 209 188 76 53 139 250 214 156 163 138 144 181 201 199 217 201 199 231 224 245 250 254 259 255 263 259 259 261 258 255 258 277 271 249
322 326 324 305 311 329 328 325 319 251 145 148 149 121 116 262 255 174 160 165 168 171 190 208 238 210 247 236 221 254 262 262 263 256 255 251 260 215 259 255 255 255 254 260 247
323 321 319 324 298 321 325 324 331 43 99 89 141 133 173 241 349 30 313 190 191 180 191 219 135 192 244 275 241 250 268 274 261 248 241 217 263 237 255 266 258 255 249 256 246
320 317 317 319 308 317 323 317 277 159 82 357 169 104 248 265 226 233 219 223 192 182 152 136 129 245 220 287 281 241 230 303 308 242 247 118 271 263 246 235 252 248 251 249 243
323 318 315 321 312 327 321 321 193 170 143 156 102 124 273 305 85 240 186 243 152 161 182 127 125 213 240 244 271 275 279 280 300 224 234 185 269 269 254 224 246 259 254 233 238
316 311 315 311 314 337 338 327 117 86 121 133 276 35 288 25 228 64 162 164 180 127 115 201 213 238 261 216 269 261 285 282 299 316 279 239 251 269 268 260 270 270 245 221 227
338 310 334 317 328 15 8 48 60 39 203 183 182 249 40 320 209 244 208 120 92 162 200 197 219 250 238 215 220 247 265 272 290 289 305 255 253 270 287 257 262 257 256 225 237
351 351 354 319 63 6 88 100 128 130 135 227 260 267 296 264 329 288 126 164 158 215 210 243 243 252 250 263 258 259 252 283 289 274 249 271 275 325 313 270 263 209 250 206 182
6 359 18 63 42 57 24 40 321 250 80 40 157 199 246 136 282 213 163 221 225 255 247 194 258 296 36 328 344 289 251 327 309 320 298 309 292 7 357 9 353 310 299 181 148
12 18 36 37 80 5 66 333 347 143 86 353 49 347 345 121 9 286 181 212 295 255 287 252 268 347 334 309 30 301 268 339 318 349 309 2 295 6 355 9 8 7 353 125 146
5 27 16 33 119 43 315 338 342 47 84 330 18 277 8 40 258 281 277 360 263 287 76 259 286 296 333 272 292 261 283 271 278 295 323 354 65 349 356 27 1 8 354 8 153
15 11 12 46 50 317 326 348 62 49 56 353 10 32 40 324 265 285 273 202 250 305 283 262 280 349 292 284 278 313 263 306 228 125 53 2 39 349 359 4 14 5 5 12 292
26 51 56 32 359 318 319 35 50 72 274 357 60 60 345 305 314 289 26 24 28 24 351 337 322 323 352 334 327 357 33 7 17 30 82 343 58 22 350 359 11 6 353 11 351
6 26 70 44 350 338 27 52 63 326 107 235 95 215 50 300 337 7 52 16 357 44 48 51 346 358 326 330 271 310 19 82 102 107 81 25 43 28 3 14 358 13 9 10 15
357 342 9 340 343 18 74 54 95 316 321 13 354 62 353 323 214 83 67 1 13 13 27 14 305 340 351 326 30 320 32 27 30 2 64 18 12 342 358 8 354 357 28 4 28
29 10 322 326 340 47 70 84 86 50 332 27 108 32 108 328 21 80 18 343 328 346 247 316 337 7 310 10 358 73 300 48 3 72 71 38 38 18 353 360 15 13 13 10 18
33 40 273 339 66 42 84 71 15 327 12 81 22 57 69 8 45 50 344 292 351 318 25 350 90 312 11 15 12 357 10 22 102 34 127 135 57 12 356 1 5 12 17 17 15
353 11 312 360 52 22 32 22 353 345 360 28 101 80 72 31 41 79 81 304 333 316 6 324 111 22 323 289 321 91 357 70 95 315 27 127 71 14 349 25 19 6 10 19 23
65 273 307 56 77 357 348 24 41 14 6 28 28 28 48 57 93 76 57 319 356 32 46 321 31 23 343 348 360 29 331 25 110 38 27 100 226 28 360 32 16 18 15 19 23
68 11 330 24 28 23 33 18 24 8 38 16 21 48 52 38 27 89 60 356 341 1 25 80 78 139 167 212 230 332 330 9 88 80 210 183 270 337 360 18 25 8 9 12 25
28 156 142 330 338 337 356 41 10 2 350 18 45 24 306 62 40 44 358 1 350 354 30 78 83 2 284 288 291 251 295 341 63 181 121 222 228 339 336 17 353 353 11 20 14
95 94 340 186 304 352 351 357 39 354 15 355 81 14 31 93 97 301 331 47 321 340 45 10 147 64 325 310 15 303 299 293 270 247 284 239 270 192 297 127 48 30 23 22 10
138 3 86 265 357 10 328 335 346 355 41 52 318 98 57 76 343 146 106 93 98 96 50 59 110 61 291 348 354 353 227 201 245 207 186 225 233 160 273 98 27 7 36 14 2